Mustoe, VA (24468)

7:35 AM EST on February 08, 2016 (GMT -0500)
KVAMONTE3 | | Change Station
CLOSE
Current Station
Personal Weather Station
Location: Monterey, VA
Elevation: 2924 ft
Nearby Weather Stations
Active Advisory: Winter Weather Advisory

Elev 2924 ft 38.41 °N, 79.58 °W | Updated 4 seconds ago

Partly Cloudy
Partly Cloudy
22.2 °F
Feels Like 22 °F
N
3.0
Wind Variable Wind from NNE
Gusts 3.0 mph

Today
High -- | Low -- °F
--% Chance of Precip.
Yesterday
High -- | Low -- °F
Precip. -- in
Pressure 29.66 in
Visibility 10.0 miles
Clouds Clear
Windchill 22 °F
Dew Point 19 °F
Humidity 86%
Rainfall 0.00 in
Snow Depth Not available.
7:17 AM 5:48 PM
Waning Crescent, 0% visible
METAR KHSP 081215Z AUTO 00000KT 10SM CLR 00/M07 A2966 RMK AO2 T00011069
Pressure 29.66 in
Visibility 10.0 miles
Clouds Clear
Windchill 22 °F
Dew Point 19 °F
Humidity 86%
Rainfall 0.00 in
Snow Depth Not available.
7:17 AM 5:48 PM
Waning Crescent, 0% visible
METAR KHSP 081215Z AUTO 00000KT 10SM CLR 00/M07 A2966 RMK AO2 T00011069

10-Day Weather Forecast

Almanac

Astronomy

Feb. 08, 2016 Rise Set
Actual Time
Civil Twilight
Nautical Twilight
Astronomical Twilight
Moon
Length of Visible Light
Length of Day
Tomorrow will be .
, % of the Moon is Illuminated

Today's Extremes

State Highs State Lows

Community

WunderPhotos

Upload Photos

1,891,426 photos uploaded!

WunderBlog® & News

Nearby

Air Quality

  Air Quality AQ Index Pollutant
Not available.

Snow Depth

Station Depth Elevation

Earthquake Activity

City Distance Mag. Time & Date
Minimum magnitude displayed is 2.5.

Coastal Water Temperatures

Place Temperature

Stations

Nearby Weather Stations

Station Location Temp. Windchill Dew Point Humidity Wind Precip. Elev Updated Type
                   

Watches & Warnings

Winter Weather Advisory
Issued: 3:46 AM EST Feb. 8, 2016 – National Weather Service

... Winter Weather Advisory remains in effect from noon today to
1 am EST Tuesday...

* precipitation type... snow

* accumulations... snow accumulation of 2 to 4 inches.

* Timing... areas of snow heavy at times this afternoon. This may
need to be extended into Tuesday.

* Impacts... snow covered roads and travel disruptions.

* Winds... south 5 to 10 mph... becoming west.

* Temperatures... lower to mid 30s at onset... decreasing into the
20s later today.

Precautionary/preparedness actions...

A Winter Weather Advisory for snow means that periods of snow
will cause primarily travel difficulties. Be prepared for snow
covered roads and limited visibilities... and use caution while
driving.